Year,Month,Day,Hour,Minute,Value (Times are PST for temperature in C)
2012,07,26,00,01,18.10
2012,07,26,00,03,18.10
2012,07,26,00,04,18.00
2012,07,26,00,05,18.00
2012,07,26,00,07,18.00
2012,07,26,00,08,17.90
2012,07,26,00,09,17.90
2012,07,26,00,10,17.90
2012,07,26,00,11,17.90
2012,07,26,00,12,17.90
2012,07,26,00,13,17.80
2012,07,26,00,14,17.80
2012,07,26,00,15,17.80
2012,07,26,00,16,17.80
2012,07,26,00,18,17.80
2012,07,26,00,19,17.80
2012,07,26,00,20,17.80
2012,07,26,00,22,17.80
2012,07,26,00,24,17.70
2012,07,26,00,25,17.70
2012,07,26,00,27,17.70
2012,07,26,00,28,17.70
2012,07,26,00,29,17.70
2012,07,26,00,30,17.70
2012,07,26,00,32,17.70
2012,07,26,00,33,17.70
2012,07,26,00,35,17.60
2012,07,26,00,36,17.60
2012,07,26,00,37,17.60
2012,07,26,00,39,17.60
2012,07,26,00,40,17.50
2012,07,26,00,41,17.50
2012,07,26,00,42,17.40
2012,07,26,00,43,17.40
2012,07,26,00,45,17.40
2012,07,26,00,47,17.40
2012,07,26,00,48,17.40
2012,07,26,00,49,17.40
2012,07,26,00,50,17.40
2012,07,26,00,52,17.40
2012,07,26,00,53,17.30
2012,07,26,00,54,17.30
2012,07,26,00,56,17.30
2012,07,26,00,58,17.30
2012,07,26,00,59,17.30
2012,07,26,01,00,17.30
2012,07,26,01,02,17.20
2012,07,26,01,03,17.20
2012,07,26,01,05,17.20
2012,07,26,01,06,17.20
2012,07,26,01,07,17.20
2012,07,26,01,08,17.20
2012,07,26,01,10,17.10
2012,07,26,01,11,17.10
2012,07,26,01,13,17.10
2012,07,26,01,14,17.10
2012,07,26,01,15,17.10
2012,07,26,01,16,17.10
2012,07,26,01,18,17.10
2012,07,26,01,19,17.00
2012,07,26,01,20,17.00
2012,07,26,01,22,16.90
2012,07,26,01,23,16.90
2012,07,26,01,24,16.90
2012,07,26,01,25,16.90
2012,07,26,01,26,16.90
2012,07,26,01,28,16.80
2012,07,26,01,29,16.80
2012,07,26,01,30,16.80
2012,07,26,01,31,16.80
2012,07,26,01,32,16.80
2012,07,26,01,33,16.80
2012,07,26,01,35,16.80
2012,07,26,01,36,16.80
2012,07,26,01,38,16.70
2012,07,26,01,39,16.70
2012,07,26,01,40,16.70
2012,07,26,01,42,16.70
2012,07,26,01,44,16.70
2012,07,26,01,45,16.70
2012,07,26,01,46,16.60
2012,07,26,01,48,16.60
2012,07,26,01,49,16.60
2012,07,26,01,50,16.60
2012,07,26,01,52,16.60
2012,07,26,01,53,16.60
2012,07,26,01,54,16.60
2012,07,26,01,55,16.60
2012,07,26,01,56,16.60
2012,07,26,01,57,16.50
2012,07,26,01,58,16.50
2012,07,26,01,59,16.50
2012,07,26,02,00,16.50
2012,07,26,02,01,16.50
2012,07,26,02,02,16.40
2012,07,26,02,04,16.40
2012,07,26,02,06,16.40
2012,07,26,02,07,16.40
2012,07,26,02,08,16.40
2012,07,26,02,10,16.30
2012,07,26,02,11,16.30
2012,07,26,02,13,16.30
2012,07,26,02,14,16.30
2012,07,26,02,15,16.30
2012,07,26,02,16,16.30
2012,07,26,02,18,16.20
2012,07,26,02,20,16.20
2012,07,26,02,21,16.20
2012,07,26,02,23,16.20
2012,07,26,02,24,16.20
2012,07,26,02,25,16.20
2012,07,26,02,26,16.10
2012,07,26,02,28,16.10
2012,07,26,02,29,16.10
2012,07,26,02,30,16.10
2012,07,26,02,31,16.10
2012,07,26,02,33,16.10
2012,07,26,02,34,16.00
2012,07,26,02,35,16.00
2012,07,26,02,37,16.00
2012,07,26,02,38,16.00
2012,07,26,02,39,16.00
2012,07,26,02,41,15.90
2012,07,26,02,42,15.90
2012,07,26,02,43,15.90
2012,07,26,02,45,15.90
2012,07,26,02,47,15.90
2012,07,26,02,48,15.90
2012,07,26,02,49,15.90
2012,07,26,02,50,15.90
2012,07,26,02,51,15.90
2012,07,26,02,53,15.90
2012,07,26,02,54,15.90
2012,07,26,02,55,15.90
2012,07,26,02,57,15.90
2012,07,26,02,59,15.80
2012,07,26,03,00,15.80
2012,07,26,03,02,15.80
2012,07,26,03,04,15.80
2012,07,26,03,05,15.80
2012,07,26,03,07,15.80
2012,07,26,03,08,15.80
2012,07,26,03,10,15.70
2012,07,26,03,12,15.70
2012,07,26,03,13,15.70
2012,07,26,03,15,15.60
2012,07,26,03,16,15.60
2012,07,26,03,18,15.60
2012,07,26,03,19,15.60
2012,07,26,03,20,15.60
2012,07,26,03,22,15.50
2012,07,26,03,23,15.50
2012,07,26,03,24,15.50
2012,07,26,03,25,15.50
2012,07,26,03,26,15.40
2012,07,26,03,28,15.40
2012,07,26,03,30,15.40
2012,07,26,03,32,15.40
2012,07,26,03,33,15.40
2012,07,26,03,35,15.30
2012,07,26,03,36,15.30
2012,07,26,03,38,15.30
2012,07,26,03,39,15.30
2012,07,26,03,41,15.30
2012,07,26,03,42,15.30
2012,07,26,03,43,15.30
2012,07,26,03,44,15.30
2012,07,26,03,45,15.20
2012,07,26,03,46,15.20
2012,07,26,03,47,15.20
2012,07,26,03,48,15.20
2012,07,26,03,49,15.20
2012,07,26,03,50,15.20
2012,07,26,03,51,15.10
2012,07,26,03,52,15.10
2012,07,26,03,54,15.10
2012,07,26,03,55,15.10
2012,07,26,03,56,15.10
2012,07,26,03,58,15.00
2012,07,26,03,59,15.00
2012,07,26,04,00,15.00
2012,07,26,04,02,15.00
2012,07,26,04,03,15.00
2012,07,26,04,04,15.00
2012,07,26,04,05,15.00
2012,07,26,04,07,15.00
2012,07,26,04,09,15.00
2012,07,26,04,10,15.00
2012,07,26,04,11,15.00
2012,07,26,04,13,15.00
2012,07,26,04,14,15.00
2012,07,26,04,15,15.00
2012,07,26,04,16,15.00
2012,07,26,04,17,15.00
2012,07,26,04,18,15.00
2012,07,26,04,19,15.00
2012,07,26,04,20,15.00
2012,07,26,04,21,15.00
2012,07,26,04,22,15.00
2012,07,26,04,23,15.00
2012,07,26,04,25,15.00
2012,07,26,04,26,15.00
2012,07,26,04,28,14.90
2012,07,26,04,29,14.90
2012,07,26,04,30,14.90
2012,07,26,04,32,14.80
2012,07,26,04,33,14.80
2012,07,26,04,34,14.80
2012,07,26,04,35,14.80
2012,07,26,04,37,14.80
2012,07,26,04,38,14.80
2012,07,26,04,40,14.80
2012,07,26,04,42,14.80
2012,07,26,04,44,14.70
2012,07,26,04,46,14.70
2012,07,26,04,48,14.70
2012,07,26,04,49,14.70
2012,07,26,04,51,14.60
2012,07,26,04,52,14.60
2012,07,26,04,54,14.60
2012,07,26,04,55,14.60
2012,07,26,04,57,14.60
2012,07,26,04,58,14.60
2012,07,26,04,59,14.60
2012,07,26,05,01,14.50
2012,07,26,05,02,14.50
2012,07,26,05,03,14.50
2012,07,26,05,04,14.40
2012,07,26,05,05,14.40
2012,07,26,05,06,14.40
2012,07,26,05,07,14.40
2012,07,26,05,09,14.40
2012,07,26,05,10,14.40
2012,07,26,05,11,14.40
2012,07,26,05,12,14.30
2012,07,26,05,13,14.30
2012,07,26,05,14,14.30
2012,07,26,05,15,14.30
2012,07,26,05,17,14.30
2012,07,26,05,18,14.30
2012,07,26,05,19,14.30
2012,07,26,05,20,14.30
2012,07,26,05,21,14.30
2012,07,26,05,22,14.30
2012,07,26,05,23,14.30
2012,07,26,05,24,14.30
2012,07,26,05,25,14.30
2012,07,26,05,27,14.20
2012,07,26,05,28,14.20
2012,07,26,05,29,14.20
2012,07,26,05,30,14.20
2012,07,26,05,31,14.20
2012,07,26,05,32,14.20
2012,07,26,05,33,14.20
2012,07,26,05,34,14.20
2012,07,26,05,35,14.20
2012,07,26,05,36,14.20
2012,07,26,05,37,14.20
2012,07,26,05,38,14.20
2012,07,26,05,39,14.20
2012,07,26,05,40,14.20
2012,07,26,05,41,14.20
2012,07,26,05,42,14.30
2012,07,26,05,43,14.20
2012,07,26,05,44,14.30
2012,07,26,05,45,14.20
2012,07,26,05,47,14.20
2012,07,26,05,48,14.20
2012,07,26,05,49,14.20
2012,07,26,05,50,14.20
2012,07,26,05,51,14.20
2012,07,26,05,52,14.20
2012,07,26,05,53,14.20
2012,07,26,05,54,14.20
2012,07,26,05,55,14.20
2012,07,26,05,56,14.20
2012,07,26,05,57,14.20
2012,07,26,05,58,14.20
2012,07,26,05,59,14.20
2012,07,26,06,00,14.20
2012,07,26,06,01,14.20
2012,07,26,06,02,14.20
2012,07,26,06,03,14.20
2012,07,26,06,05,14.10
2012,07,26,06,06,14.10
2012,07,26,06,07,14.10
2012,07,26,06,08,14.10
2012,07,26,06,09,14.10
2012,07,26,06,10,14.10
2012,07,26,06,11,14.10
2012,07,26,06,12,14.10
2012,07,26,06,13,14.10
2012,07,26,06,14,14.10
2012,07,26,06,15,14.10
2012,07,26,06,16,14.10
2012,07,26,06,17,14.10
2012,07,26,06,18,14.10
2012,07,26,06,19,14.00
2012,07,26,06,20,14.00
2012,07,26,06,21,14.00
2012,07,26,06,22,14.00
2012,07,26,06,23,14.00
2012,07,26,06,24,14.00
2012,07,26,06,25,14.00
2012,07,26,06,26,14.00
2012,07,26,06,27,14.00
2012,07,26,06,28,14.00
2012,07,26,06,29,14.00
2012,07,26,06,30,14.00
2012,07,26,06,31,13.90
2012,07,26,06,32,13.90
2012,07,26,06,33,13.90
2012,07,26,06,34,13.90
2012,07,26,06,35,13.90
2012,07,26,06,36,13.90
2012,07,26,06,37,13.90
2012,07,26,06,38,13.90
2012,07,26,06,39,13.90
2012,07,26,06,40,13.90
2012,07,26,06,41,13.90
2012,07,26,06,42,13.90
2012,07,26,06,43,14.00
2012,07,26,06,44,14.00
2012,07,26,06,45,14.00
2012,07,26,06,46,14.10
2012,07,26,06,47,14.10
2012,07,26,06,48,14.10
2012,07,26,06,49,14.10
2012,07,26,06,50,14.10
2012,07,26,06,51,14.10
2012,07,26,06,52,14.10
2012,07,26,06,53,14.20
2012,07,26,06,54,14.20
2012,07,26,06,55,14.20
2012,07,26,06,57,14.20
2012,07,26,06,58,14.30
2012,07,26,06,59,14.30
2012,07,26,07,00,14.30
2012,07,26,07,01,14.30
2012,07,26,07,03,14.30
2012,07,26,07,04,14.30
2012,07,26,07,06,14.40
2012,07,26,07,07,14.40
2012,07,26,07,08,14.40
2012,07,26,07,10,14.40
2012,07,26,07,11,14.50
2012,07,26,07,12,14.60
2012,07,26,07,13,14.60
2012,07,26,07,14,14.60
2012,07,26,07,15,14.60
2012,07,26,07,16,14.70
2012,07,26,07,18,14.80
2012,07,26,07,19,14.80
2012,07,26,07,20,14.80
2012,07,26,07,22,15.00
2012,07,26,07,23,15.00
2012,07,26,07,24,15.00
2012,07,26,07,25,15.00
2012,07,26,07,26,15.10
2012,07,26,07,27,15.20
2012,07,26,07,28,15.30
2012,07,26,07,29,15.30
2012,07,26,07,30,15.30
2012,07,26,07,31,15.40
2012,07,26,07,33,15.40
2012,07,26,07,34,15.40
2012,07,26,07,35,15.40
2012,07,26,07,37,15.40
2012,07,26,07,38,15.40
2012,07,26,07,39,15.40
2012,07,26,07,40,15.40
2012,07,26,07,41,15.40
2012,07,26,07,42,15.40
2012,07,26,07,44,15.40
2012,07,26,07,45,15.40
2012,07,26,07,46,15.40
2012,07,26,07,47,15.40
2012,07,26,07,49,15.40
2012,07,26,07,50,15.40
2012,07,26,07,52,15.30
2012,07,26,07,53,15.40
2012,07,26,07,54,15.40
2012,07,26,07,55,15.40
2012,07,26,07,56,15.40
2012,07,26,07,57,15.40
2012,07,26,07,58,15.40
2012,07,26,07,59,15.40
2012,07,26,08,00,15.40
2012,07,26,08,02,15.60
2012,07,26,08,04,15.70
2012,07,26,08,05,15.80
2012,07,26,08,07,15.90
2012,07,26,08,09,16.00
2012,07,26,08,11,16.10
2012,07,26,08,13,16.20
2012,07,26,08,14,16.20
2012,07,26,08,16,16.20
2012,07,26,08,18,16.20
2012,07,26,08,20,16.30
2012,07,26,08,21,16.30
2012,07,26,08,22,16.30
2012,07,26,08,24,16.30
2012,07,26,08,25,16.40
2012,07,26,08,26,16.40
2012,07,26,08,27,16.40
2012,07,26,08,28,16.40
2012,07,26,08,29,16.40
2012,07,26,08,31,16.40
2012,07,26,08,32,16.50
2012,07,26,08,33,16.50
2012,07,26,08,34,16.50
2012,07,26,08,35,16.50
2012,07,26,08,36,16.50
2012,07,26,08,37,16.50
2012,07,26,08,39,16.60
2012,07,26,08,40,16.60
2012,07,26,08,41,16.60
2012,07,26,08,42,16.60
2012,07,26,08,44,16.70
2012,07,26,08,45,16.70
2012,07,26,08,46,16.70
2012,07,26,08,47,16.70
2012,07,26,08,48,16.80
2012,07,26,08,49,16.80
2012,07,26,08,50,16.80
2012,07,26,08,51,16.80
2012,07,26,08,52,16.80
2012,07,26,08,53,16.80
2012,07,26,08,54,16.70
2012,07,26,08,55,16.70
2012,07,26,08,56,16.70
2012,07,26,08,57,16.70
2012,07,26,08,58,16.70
2012,07,26,08,59,16.70
2012,07,26,09,00,16.70
2012,07,26,09,01,16.70
2012,07,26,09,02,16.70
2012,07,26,09,03,16.70
2012,07,26,09,04,16.70
2012,07,26,09,06,16.80
2012,07,26,09,08,16.80
2012,07,26,09,10,16.90
2012,07,26,09,11,16.90
2012,07,26,09,12,16.90
2012,07,26,09,13,16.90
2012,07,26,09,15,16.80
2012,07,26,09,16,16.80
2012,07,26,09,18,16.80
2012,07,26,09,19,16.80
2012,07,26,09,20,16.80
2012,07,26,09,22,16.80
2012,07,26,09,23,16.80
2012,07,26,09,25,16.90
2012,07,26,09,27,16.90
2012,07,26,09,28,16.90
2012,07,26,09,30,16.90
2012,07,26,09,32,17.10
2012,07,26,09,33,17.10
2012,07,26,09,35,17.20
2012,07,26,09,37,17.30
2012,07,26,09,39,17.30
2012,07,26,09,41,17.40
2012,07,26,09,42,17.40
2012,07,26,09,43,17.40
2012,07,26,09,44,17.50
2012,07,26,09,45,17.50
2012,07,26,09,46,17.50
2012,07,26,09,47,17.50
2012,07,26,09,49,17.60
2012,07,26,09,50,17.60
2012,07,26,09,51,17.70
2012,07,26,09,53,17.70
2012,07,26,09,54,17.80
2012,07,26,09,55,17.80
2012,07,26,09,57,17.80
2012,07,26,09,58,17.90
2012,07,26,10,00,18.00
2012,07,26,10,01,18.10
2012,07,26,10,02,18.10
2012,07,26,10,03,18.10
2012,07,26,10,04,18.20
2012,07,26,10,05,18.20
2012,07,26,10,06,18.20
2012,07,26,10,08,18.30
2012,07,26,10,09,18.30
2012,07,26,10,10,18.30
2012,07,26,10,12,18.40
2012,07,26,10,13,18.50
2012,07,26,10,14,18.60
2012,07,26,10,15,18.60
2012,07,26,10,17,18.70
2012,07,26,10,18,18.70
2012,07,26,10,20,18.80
2012,07,26,10,22,18.80
2012,07,26,10,23,18.80
2012,07,26,10,25,18.80
2012,07,26,10,26,18.80
2012,07,26,10,27,18.90
2012,07,26,10,29,18.90
2012,07,26,10,30,19.10
2012,07,26,10,32,19.20
2012,07,26,10,33,19.20
2012,07,26,10,34,19.20
2012,07,26,10,35,19.30
2012,07,26,10,37,19.30
2012,07,26,10,39,19.40
2012,07,26,10,40,19.50
2012,07,26,10,41,19.60
2012,07,26,10,43,19.60
2012,07,26,10,45,19.60
2012,07,26,10,47,19.70
2012,07,26,10,48,19.70
2012,07,26,10,49,19.80
2012,07,26,10,51,19.80
2012,07,26,10,52,19.80
2012,07,26,10,53,19.80
2012,07,26,10,55,19.90
2012,07,26,10,56,20.00
2012,07,26,10,57,20.10
2012,07,26,10,59,20.10
2012,07,26,11,00,20.10
2012,07,26,11,01,20.20
2012,07,26,11,02,20.10
2012,07,26,11,04,20.20
2012,07,26,11,05,20.20
2012,07,26,11,06,20.20
2012,07,26,11,08,20.10
2012,07,26,11,10,20.10
2012,07,26,11,11,20.20
2012,07,26,11,12,20.20
2012,07,26,11,14,20.30
2012,07,26,11,15,20.30
2012,07,26,11,16,20.40
2012,07,26,11,18,20.70
2012,07,26,11,19,20.80
2012,07,26,11,20,20.90
2012,07,26,11,22,21.10
2012,07,26,11,23,21.10
2012,07,26,11,25,21.20
2012,07,26,11,27,21.20
2012,07,26,11,28,21.20
2012,07,26,11,30,21.30
2012,07,26,11,31,21.40
2012,07,26,11,32,21.40
2012,07,26,11,34,21.60
2012,07,26,11,35,21.60
2012,07,26,11,36,21.70
2012,07,26,11,38,21.80
2012,07,26,11,39,21.80
2012,07,26,11,40,21.80
2012,07,26,11,41,21.90
2012,07,26,11,42,21.90
2012,07,26,11,43,21.90
2012,07,26,11,45,21.90
2012,07,26,11,46,21.90
2012,07,26,11,47,21.90
2012,07,26,11,48,21.80
2012,07,26,11,49,21.90
2012,07,26,11,50,21.90
2012,07,26,11,51,21.90
2012,07,26,11,52,22.00
2012,07,26,11,53,22.10
2012,07,26,11,54,22.10
2012,07,26,11,55,22.00
2012,07,26,11,56,21.90
2012,07,26,11,57,21.90
2012,07,26,11,58,21.90
2012,07,26,11,59,21.90
2012,07,26,12,00,21.90
2012,07,26,12,01,21.90
2012,07,26,12,02,22.00
2012,07,26,12,03,22.10
2012,07,26,12,04,22.10
2012,07,26,12,05,22.20
2012,07,26,12,06,22.20
2012,07,26,12,07,22.20
2012,07,26,12,08,22.30
2012,07,26,12,09,22.20
2012,07,26,12,10,22.30
2012,07,26,12,11,22.30
2012,07,26,12,12,22.30
2012,07,26,12,13,22.40
2012,07,26,12,14,22.40
2012,07,26,12,15,22.50
2012,07,26,12,16,22.50
2012,07,26,12,17,22.60
2012,07,26,12,18,22.60
2012,07,26,12,19,22.70
2012,07,26,12,20,22.70
2012,07,26,12,21,22.80
2012,07,26,12,22,22.80
2012,07,26,12,23,22.90
2012,07,26,12,24,22.90
2012,07,26,12,25,23.00
2012,07,26,12,26,23.10
2012,07,26,12,27,23.10
2012,07,26,12,28,23.10
2012,07,26,12,29,23.20
2012,07,26,12,30,23.20
2012,07,26,12,31,23.30
2012,07,26,12,32,23.40
2012,07,26,12,34,23.60
2012,07,26,12,36,23.70
2012,07,26,12,37,23.70
2012,07,26,12,39,23.70
2012,07,26,12,40,23.80
2012,07,26,12,42,23.80
2012,07,26,12,43,23.80
2012,07,26,12,44,23.90
2012,07,26,12,45,23.90
2012,07,26,12,46,23.90
2012,07,26,12,48,24.00
2012,07,26,12,50,24.00
2012,07,26,12,52,23.90
2012,07,26,12,53,23.90
2012,07,26,12,54,23.90
2012,07,26,12,55,23.90
2012,07,26,12,56,23.90
2012,07,26,12,57,23.90
2012,07,26,12,58,23.90
2012,07,26,12,59,23.90
2012,07,26,13,00,23.90
2012,07,26,13,01,23.80
2012,07,26,13,02,23.80
2012,07,26,13,03,23.70
2012,07,26,13,04,23.70
2012,07,26,13,05,23.80
2012,07,26,13,06,23.80
2012,07,26,13,08,23.90
2012,07,26,13,09,23.90
2012,07,26,13,10,23.90
2012,07,26,13,12,24.00
2012,07,26,13,13,24.10
2012,07,26,13,14,24.10
2012,07,26,13,16,24.30
2012,07,26,13,17,24.30
2012,07,26,13,18,24.40
2012,07,26,13,20,24.40
2012,07,26,13,21,24.40
2012,07,26,13,22,24.40
2012,07,26,13,23,24.40
2012,07,26,13,25,24.50
2012,07,26,13,27,24.70
2012,07,26,13,28,24.70
2012,07,26,13,29,24.70
2012,07,26,13,30,24.70
2012,07,26,13,31,24.70
2012,07,26,13,32,24.80
2012,07,26,13,33,24.80
2012,07,26,13,34,24.90
2012,07,26,13,35,24.90
2012,07,26,13,36,24.90
2012,07,26,13,38,25.00
2012,07,26,13,39,25.00
2012,07,26,13,40,25.00
2012,07,26,13,41,25.00
2012,07,26,13,42,24.90
2012,07,26,13,43,24.80
2012,07,26,13,44,24.80
2012,07,26,13,45,24.70
2012,07,26,13,46,24.70
2012,07,26,13,48,24.60
2012,07,26,13,49,24.60
2012,07,26,13,50,24.60
2012,07,26,13,52,24.60
2012,07,26,13,53,24.70
2012,07,26,13,54,24.70
2012,07,26,13,55,24.70
2012,07,26,13,56,24.80
2012,07,26,13,58,24.80
2012,07,26,13,59,24.80
2012,07,26,14,00,24.70
2012,07,26,14,01,24.80
2012,07,26,14,02,24.80
2012,07,26,14,03,24.80
2012,07,26,14,04,24.90
2012,07,26,14,05,24.80
2012,07,26,14,06,24.80
2012,07,26,14,07,24.90
2012,07,26,14,09,24.90
2012,07,26,14,10,24.90
2012,07,26,14,11,24.90
2012,07,26,14,12,25.00
2012,07,26,14,14,24.90
2012,07,26,14,15,24.90
2012,07,26,14,16,24.90
2012,07,26,14,17,24.90
2012,07,26,14,18,24.90
2012,07,26,14,19,24.90
2012,07,26,14,20,24.90
2012,07,26,14,21,24.90
2012,07,26,14,22,24.90
2012,07,26,14,23,24.90
2012,07,26,14,24,24.90
2012,07,26,14,25,24.90
2012,07,26,14,26,24.90
2012,07,26,14,27,24.90
2012,07,26,14,28,25.00
2012,07,26,14,29,25.10
2012,07,26,14,30,25.00
2012,07,26,14,31,25.00
2012,07,26,14,32,25.00
2012,07,26,14,33,25.00
2012,07,26,14,34,25.00
2012,07,26,14,35,25.10
2012,07,26,14,36,25.10
2012,07,26,14,37,25.10
2012,07,26,14,38,25.20
2012,07,26,14,39,25.20
2012,07,26,14,40,25.10
2012,07,26,14,41,25.20
2012,07,26,14,42,25.10
2012,07,26,14,44,24.90
2012,07,26,14,45,25.00
2012,07,26,14,46,25.10
2012,07,26,14,47,25.10
2012,07,26,14,48,25.10
2012,07,26,14,49,25.10
2012,07,26,14,50,25.20
2012,07,26,14,51,25.20
2012,07,26,14,52,25.20
2012,07,26,14,53,25.20
2012,07,26,14,54,25.20
2012,07,26,14,55,25.30
2012,07,26,14,56,25.30
2012,07,26,14,57,25.40
2012,07,26,14,58,25.40
2012,07,26,14,59,25.30
2012,07,26,15,00,25.30
2012,07,26,15,01,25.30
2012,07,26,15,02,25.30
2012,07,26,15,03,25.40
2012,07,26,15,04,25.40
2012,07,26,15,05,25.40
2012,07,26,15,06,25.40
2012,07,26,15,07,25.40
2012,07,26,15,08,25.50
2012,07,26,15,09,25.60
2012,07,26,15,10,25.60
2012,07,26,15,11,25.60
2012,07,26,15,12,25.50
2012,07,26,15,13,25.50
2012,07,26,15,14,25.50
2012,07,26,15,15,25.50
2012,07,26,15,16,25.50
2012,07,26,15,17,25.60
2012,07,26,15,18,25.60
2012,07,26,15,19,25.60
2012,07,26,15,20,25.50
2012,07,26,15,21,25.50
2012,07,26,15,22,25.50
2012,07,26,15,23,25.60
2012,07,26,15,24,25.60
2012,07,26,15,25,25.60
2012,07,26,15,26,25.60
2012,07,26,15,27,25.60
2012,07,26,15,28,25.70
2012,07,26,15,29,25.70
2012,07,26,15,30,25.70
2012,07,26,15,31,25.70
2012,07,26,15,32,25.70
2012,07,26,15,33,25.70
2012,07,26,15,34,25.70
2012,07,26,15,35,25.70
2012,07,26,15,36,25.70
2012,07,26,15,37,25.70
2012,07,26,15,38,25.70
2012,07,26,15,39,25.80
2012,07,26,15,40,25.80
2012,07,26,15,41,25.70
2012,07,26,15,42,25.70
2012,07,26,15,43,25.70
2012,07,26,15,44,25.70
2012,07,26,15,45,25.70
2012,07,26,15,46,25.70
2012,07,26,15,47,25.70
2012,07,26,15,48,25.70
2012,07,26,15,49,25.70
2012,07,26,15,50,25.70
2012,07,26,15,51,25.80
2012,07,26,15,52,25.80
2012,07,26,15,53,25.80
2012,07,26,15,54,25.90
2012,07,26,15,55,25.90
2012,07,26,15,56,25.80
2012,07,26,15,57,25.80
2012,07,26,15,58,25.80
2012,07,26,15,59,25.90
2012,07,26,16,00,25.90
2012,07,26,16,01,25.90
2012,07,26,16,02,25.90
2012,07,26,16,03,26.00
2012,07,26,16,04,26.00
2012,07,26,16,05,25.90
2012,07,26,16,06,25.90
2012,07,26,16,07,25.80
2012,07,26,16,08,25.80
2012,07,26,16,09,25.80
2012,07,26,16,10,25.80
2012,07,26,16,11,25.80
2012,07,26,16,12,25.90
2012,07,26,16,13,25.90
2012,07,26,16,14,25.90
2012,07,26,16,15,25.90
2012,07,26,16,16,25.90
2012,07,26,16,17,25.90
2012,07,26,16,18,25.90
2012,07,26,16,19,25.90
2012,07,26,16,20,26.00
2012,07,26,16,21,26.00
2012,07,26,16,22,26.00
2012,07,26,16,23,26.10
2012,07,26,16,24,26.10
2012,07,26,16,25,26.10
2012,07,26,16,26,26.10
2012,07,26,16,27,26.10
2012,07,26,16,28,26.10
2012,07,26,16,29,25.90
2012,07,26,16,30,25.90
2012,07,26,16,31,25.90
2012,07,26,16,32,25.90
2012,07,26,16,33,25.90
2012,07,26,16,34,25.90
2012,07,26,16,35,25.90
2012,07,26,16,36,26.00
2012,07,26,16,37,26.00
2012,07,26,16,38,26.10
2012,07,26,16,39,26.10
2012,07,26,16,40,26.00
2012,07,26,16,41,26.00
2012,07,26,16,42,25.90
2012,07,26,16,43,25.90
2012,07,26,16,44,25.90
2012,07,26,16,45,25.90
2012,07,26,16,46,25.90
2012,07,26,16,47,26.00
2012,07,26,16,48,26.00
2012,07,26,16,49,25.90
2012,07,26,16,50,25.90
2012,07,26,16,51,25.90
2012,07,26,16,52,25.90
2012,07,26,16,53,25.90
2012,07,26,16,54,25.80
2012,07,26,16,55,25.70
2012,07,26,16,56,25.80
2012,07,26,16,57,25.80
2012,07,26,16,58,25.80
2012,07,26,16,59,25.80
2012,07,26,17,00,25.80
2012,07,26,17,01,25.80
2012,07,26,17,02,25.80
2012,07,26,17,03,25.80
2012,07,26,17,04,25.80
2012,07,26,17,05,25.80
2012,07,26,17,06,25.80
2012,07,26,17,07,25.80
2012,07,26,17,08,25.70
2012,07,26,17,09,25.70
2012,07,26,17,10,25.60
2012,07,26,17,11,25.50
2012,07,26,17,12,25.50
2012,07,26,17,13,25.50
2012,07,26,17,14,25.40
2012,07,26,17,15,25.40
2012,07,26,17,16,25.30
2012,07,26,17,17,25.30
2012,07,26,17,18,25.30
2012,07,26,17,19,25.30
2012,07,26,17,20,25.20
2012,07,26,17,21,25.30
2012,07,26,17,22,25.30
2012,07,26,17,23,25.20
2012,07,26,17,24,25.20
2012,07,26,17,25,25.20
2012,07,26,17,26,25.20
2012,07,26,17,27,25.10
2012,07,26,17,28,25.10
2012,07,26,17,30,25.10
2012,07,26,17,31,25.00
2012,07,26,17,32,25.00
2012,07,26,17,33,25.00
2012,07,26,17,34,24.90
2012,07,26,17,35,24.90
2012,07,26,17,36,24.80
2012,07,26,17,37,24.80
2012,07,26,17,38,24.80
2012,07,26,17,39,24.80
2012,07,26,17,40,24.80
2012,07,26,17,41,24.80
2012,07,26,17,42,24.80
2012,07,26,17,43,24.80
2012,07,26,17,44,24.80
2012,07,26,17,45,24.80
2012,07,26,17,46,24.80
2012,07,26,17,47,24.70
2012,07,26,17,48,24.70
2012,07,26,17,49,24.60
2012,07,26,17,50,24.60
2012,07,26,17,51,24.60
2012,07,26,17,52,24.60
2012,07,26,17,53,24.50
2012,07,26,17,54,24.50
2012,07,26,17,55,24.60
2012,07,26,17,56,24.60
2012,07,26,17,57,24.50
2012,07,26,17,58,24.50
2012,07,26,17,59,24.50
2012,07,26,18,00,24.40
2012,07,26,18,01,24.30
2012,07,26,18,02,24.30
2012,07,26,18,03,24.20
2012,07,26,18,04,24.20
2012,07,26,18,06,24.20
2012,07,26,18,07,24.10
2012,07,26,18,08,24.10
2012,07,26,18,09,24.00
2012,07,26,18,10,23.90
2012,07,26,18,11,23.90
2012,07,26,18,12,23.80
2012,07,26,18,13,23.80
2012,07,26,18,14,23.70
2012,07,26,18,15,23.70
2012,07,26,18,16,23.60
2012,07,26,18,18,23.40
2012,07,26,18,19,23.40
2012,07,26,18,20,23.40
2012,07,26,18,21,23.30
2012,07,26,18,22,23.30
2012,07,26,18,24,23.30
2012,07,26,18,25,23.30
2012,07,26,18,26,23.20
2012,07,26,18,27,23.20
2012,07,26,18,28,23.20
2012,07,26,18,29,23.10
2012,07,26,18,30,23.10
2012,07,26,18,31,23.10
2012,07,26,18,32,23.10
2012,07,26,18,34,23.10
2012,07,26,18,35,23.10
2012,07,26,18,36,23.10
2012,07,26,18,37,23.10
2012,07,26,18,38,23.10
2012,07,26,18,39,23.10
2012,07,26,18,40,23.10
2012,07,26,18,41,23.00
2012,07,26,18,43,23.00
2012,07,26,18,44,23.00
2012,07,26,18,45,23.00
2012,07,26,18,46,23.00
2012,07,26,18,48,22.90
2012,07,26,18,49,22.90
2012,07,26,18,50,22.90
2012,07,26,18,51,22.80
2012,07,26,18,52,22.80
2012,07,26,18,54,22.80
2012,07,26,18,55,22.80
2012,07,26,18,56,22.80
2012,07,26,18,57,22.70
2012,07,26,18,58,22.70
2012,07,26,18,59,22.60
2012,07,26,19,00,22.60
2012,07,26,19,01,22.60
2012,07,26,19,02,22.60
2012,07,26,19,03,22.50
2012,07,26,19,04,22.40
2012,07,26,19,05,22.40
2012,07,26,19,06,22.40
2012,07,26,19,07,22.40
2012,07,26,19,08,22.40
2012,07,26,19,09,22.40
2012,07,26,19,11,22.40
2012,07,26,19,12,22.40
2012,07,26,19,13,22.50
2012,07,26,19,15,22.50
2012,07,26,19,16,22.60
2012,07,26,19,17,22.50
2012,07,26,19,19,22.40
2012,07,26,19,20,22.40
2012,07,26,19,21,22.40
2012,07,26,19,23,22.30
2012,07,26,19,25,22.20
2012,07,26,19,26,22.20
2012,07,26,19,27,22.20
2012,07,26,19,28,22.10
2012,07,26,19,30,22.10
2012,07,26,19,31,22.10
2012,07,26,19,32,22.00
2012,07,26,19,33,22.00
2012,07,26,19,35,21.90
2012,07,26,19,36,21.90
2012,07,26,19,38,21.90
2012,07,26,19,39,21.90
2012,07,26,19,40,21.90
2012,07,26,19,41,21.90
2012,07,26,19,42,22.00
2012,07,26,19,43,22.00
2012,07,26,19,44,21.90
2012,07,26,19,45,21.90
2012,07,26,19,46,21.90
2012,07,26,19,47,21.90
2012,07,26,19,48,22.00
2012,07,26,19,49,22.10
2012,07,26,19,50,22.10
2012,07,26,19,52,22.20
2012,07,26,19,53,22.20
2012,07,26,19,55,22.20
2012,07,26,19,57,22.20
2012,07,26,19,58,22.20
2012,07,26,19,59,22.20
2012,07,26,20,00,22.10
2012,07,26,20,01,22.10
2012,07,26,20,02,22.00
2012,07,26,20,03,22.00
2012,07,26,20,05,22.00
2012,07,26,20,06,22.00
2012,07,26,20,07,21.90
2012,07,26,20,08,21.90
2012,07,26,20,09,21.80
2012,07,26,20,10,21.80
2012,07,26,20,11,21.80
2012,07,26,20,13,21.70
2012,07,26,20,14,21.60
2012,07,26,20,15,21.60
2012,07,26,20,17,21.30
2012,07,26,20,18,21.20
2012,07,26,20,19,21.00
2012,07,26,20,20,20.90
2012,07,26,20,22,20.80
2012,07,26,20,23,20.80
2012,07,26,20,25,20.60
2012,07,26,20,26,20.50
2012,07,26,20,27,20.40
2012,07,26,20,29,20.20
2012,07,26,20,31,20.00
2012,07,26,20,33,19.90
2012,07,26,20,34,19.80
2012,07,26,20,35,19.80
2012,07,26,20,37,19.80
2012,07,26,20,39,19.70
2012,07,26,20,40,19.70